User: anonymous   Login
Location: Unspecified
(0.0000°N, 0.0000°E)
Time: 10:18:14
(UTC+00:00)
Language:

Kosmos-1655 - Orbit

View from above orbital plane
View from above orbital plane
View from above satellite
View from above satellite

Ground track
Ground track

The orbit data is extracted from the following two-line orbital elements,

1 15751U 85041A   17294.90577635 +.00000012 +00000-0 -29190-5 0  9992
2 15751 082.9504 232.7656 0025586 223.7001 195.8453 13.71693175621424
Epoch (UTC): 21 October 2017 21:44:19
Eccentricity: 0.0025586
inclination: 82.9504°
perigee height: 974 km
apogee height: 1012 km
right ascension of ascending node: 232.7656°
argument of perigee: 223.7001°
revolutions per day: 13.71693175
mean anomaly at epoch: 195.8453°
orbit number at epoch: 62142

The dashed part of the orbit path shows where the satellite is in the earth's shadow,  

DLR